Location: ??
(34.7707°N, 135.6540°E)
Time: 20:21:22
(UTC+00:00)

Tiangong - Pass Details

Date: 05 October 2021
Orbit: 382 x 385 km, 41.5° (Epoch: 16 October)

Event Time Altitude Azimuth Distance (km) Brightness Sun altitude
Exits shadow 18:29:12 10° 63° (ENE) 1,382 4.7 -30.6°
Drops below altitude 10° 18:29:15 10° 63° (ENE) 1,398 4.8 -30.6°
Sets 18:31:33 0° 78° (ENE) 2,249 6.1 -30.1°
